Theta_e
320 319 318 316 316 317 319 320 319 319 319 320 319 319 320 320 321 320 321 320 319 320 319 318 317 316 316 316 317 316 313 312 312 309 311 315 315 313 311 311 311 310 309 310 312 311 310 311 312 313 315 315 315 316 316 314 314 319 321 318 315 316 317 317 317 315 315 316 313 310 312 316 315 310 309 309 311 312 312 313 312 314 318 320 321 320 323 331
320 319 317 315 316 318 319 319 319 318 318 319 318 319 319 320 320 320 320 320 319 318 317 315 313 312 312 312 312 310 307 309 309 309 314 316 314 313 311 311 310 309 311 311 311 311 310 311 312 313 315 315 314 316 316 315 315 319 321 317 317 319 316 314 316 314 314 315 313 311 311 314 315 312 310 312 313 312 313 314 313 314 317 321 322 321 325 330
319 318 316 315 317 319 318 318 318 317 318 318 318 318 319 319 319 319 320 319 319 317 315 312 311 310 309 309 308 307 307 308 308 309 315 316 313 311 310 310 309 309 311 312 312 310 310 311 312 313 314 314 313 314 317 316 316 317 318 318 319 319 315 312 313 313 311 312 313 312 310 311 312 311 311 313 314 312 313 314 313 315 315 319 324 323 327 331
319 317 316 315 317 319 318 317 317 316 317 317 317 318 319 319 319 319 319 319 318 316 313 311 310 309 308 308 307 307 307 308 309 309 312 314 312 310 310 310 309 310 312 313 312 310 310 311 312 313 314 314 313 313 315 314 315 316 317 317 318 317 315 312 311 311 308 309 313 312 309 311 310 309 312 313 314 313 314 315 313 315 314 319 324 325 329 332
318 316 315 315 317 318 317 317 317 316 317 317 317 318 319 318 318 318 318 318 318 315 311 310 309 308 308 307 307 307 308 311 311 310 310 310 310 309 309 309 310 311 313 313 311 309 310 310 312 313 313 314 313 314 313 311 313 316 314 313 314 314 315 312 308 309 307 308 311 311 311 312 310 310 312 313 314 315 314 313 314 314 313 320 324 326 329 331
318 316 315 315 316 317 316 317 317 316 317 317 318 318 318 317 317 317 317 317 317 314 310 309 308 308 307 307 308 308 310 312 311 311 312 310 309 309 308 308 312 314 313 312 309 309 310 311 312 313 312 313 314 314 312 309 310 316 313 309 310 311 313 310 307 308 307 309 311 311 312 311 310 312 310 311 314 314 310 310 311 310 314 323 326 327 329 330
317 315 314 314 316 316 316 317 316 316 317 317 318 317 317 317 316 316 316 317 315 312 310 308 307 307 306 307 309 309 310 310 310 312 313 312 309 308 308 310 314 315 313 311 309 310 310 310 312 312 312 312 312 311 311 310 310 315 314 310 309 308 310 308 306 307 306 309 310 309 310 310 312 313 308 309 314 312 308 307 309 309 315 324 326 327 330 331
317 315 314 315 317 316 316 317 316 316 317 317 317 317 317 316 316 316 316 316 313 310 310 308 307 307 306 309 310 309 309 310 312 313 313 314 311 309 311 313 315 313 312 311 310 311 310 311 311 311 311 311 311 310 310 311 312 314 314 310 309 308 308 306 304 305 305 307 307 307 311 311 310 310 308 310 313 311 308 308 312 315 320 324 324 327 331 332
317 316 315 316 316 316 316 317 315 316 317 316 316 316 316 315 315 315 315 314 310 309 309 307 307 307 307 309 310 309 309 310 311 312 313 315 313 313 314 314 313 312 312 311 310 311 310 311 311 310 311 310 310 311 310 312 313 313 311 310 309 309 308 306 306 306 306 307 306 309 312 310 307 307 310 313 311 310 308 310 316 320 321 323 325 327 330 331
316 316 316 316 316 317 316 315 315 316 316 315 315 314 314 314 314 315 314 313 309 308 309 307 307 308 308 309 309 308 311 312 311 311 313 315 315 314 314 312 312 311 312 311 310 311 310 311 311 310 310 309 309 310 309 311 311 310 310 310 309 309 308 308 309 307 307 308 307 311 312 309 307 308 313 313 307 306 308 311 316 319 319 322 325 326 330 331
317 317 316 316 316 316 315 314 315 316 315 315 315 314 314 314 314 314 314 312 308 308 308 307 307 309 308 308 308 309 313 314 312 312 312 314 316 314 313 312 312 312 311 311 311 311 311 311 310 309 311 310 309 309 309 308 309 310 310 311 309 309 309 309 310 308 309 309 307 310 311 310 308 310 314 311 305 306 309 313 315 317 318 321 324 325 328 330
317 316 315 315 315 315 314 315 316 316 314 315 314 313 314 314 314 314 313 310 308 307 307 307 308 308 307 307 308 309 313 315 314 313 312 313 315 314 313 312 312 312 311 311 311 311 311 310 309 310 310 310 310 310 309 307 308 310 311 313 310 311 312 310 310 309 311 311 308 310 311 312 312 312 313 308 304 307 309 312 314 316 317 319 322 323 326 328
317 316 315 315 314 314 315 315 316 315 314 314 314 314 314 313 313 313 312 310 307 307 307 308 309 308 307 307 308 309 313 315 314 313 312 313 313 314 313 312 312 312 311 312 311 311 311 310 310 311 310 310 311 310 309 308 308 310 310 313 312 312 312 310 309 309 311 311 307 309 310 312 314 313 311 306 304 307 309 312 313 315 316 316 318 320 323 326
317 316 315 314 313 313 315 315 315 314 314 313 313 314 313 313 314 313 312 311 308 308 308 309 310 308 307 308 309 311 314 314 313 312 312 312 312 313 313 312 312 312 312 313 312 311 311 310 310 311 310 310 310 308 310 309 309 311 311 312 313 312 311 310 309 310 312 309 307 309 309 312 313 311 308 306 305 308 310 312 312 312 313 313 315 317 319 323
316 315 315 314 313 313 315 315 314 314 314 313 313 313 312 313 314 313 313 312 310 309 309 311 310 308 306 307 309 313 314 313 313 312 313 313 313 313 313 312 313 314 314 313 313 311 310 310 311 311 309 308 310 310 312 311 310 311 310 312 313 311 310 311 309 309 312 310 308 310 309 311 314 311 307 306 306 308 310 312 311 310 310 310 311 313 315 318
315 315 315 314 313 313 315 314 313 314 313 313 314 313 312 313 313 313 313 312 310 309 310 313 311 307 306 307 310 313 313 313 313 313 313 313 314 313 313 313 313 313 313 312 311 310 310 311 311 310 309 309 311 313 312 312 311 311 311 312 313 312 310 311 309 308 310 311 310 310 311 312 314 312 307 305 307 308 310 311 311 311 310 310 310 310 311 313
315 314 314 313 313 314 314 313 314 314 313 313 313 312 312 312 313 314 313 311 311 310 312 314 309 306 307 307 310 313 313 313 312 313 313 313 314 313 313 312 312 311 311 310 310 311 312 311 309 309 310 310 312 313 312 311 311 311 312 313 312 312 309 310 311 309 308 311 312 310 311 312 313 313 309 307 307 308 310 312 312 312 311 312 311 310 310 311
315 314 314 313 314 314 313 313 314 313 312 313 312 311 312 313 313 313 312 311 311 310 311 311 307 306 307 306 309 312 312 312 312 313 313 313 313 313 313 312 310 311 312 312 311 312 312 311 311 312 312 310 312 313 311 311 312 311 312 311 311 311 310 310 311 309 309 311 313 312 312 312 313 313 312 311 308 308 310 312 312 312 312 312 312 311 311 311
315 314 314 314 314 313 313 313 314 313 312 312 312 312 313 312 312 312 311 309 308 308 309 308 306 308 307 307 310 312 312 312 313 313 312 312 312 312 312 311 313 314 312 314 313 312 313 313 313 313 313 312 312 312 312 314 314 313 313 312 312 311 310 311 310 307 308 312 312 313 312 313 313 313 313 313 310 309 311 310 311 311 311 312 312 312 312 312
315 314 314 314 314 313 313 313 313 312 311 312 312 312 312 311 310 311 309 307 307 307 308 308 307 308 307 309 311 311 312 312 313 313 311 311 311 312 311 311 315 315 313 316 315 311 312 314 314 314 314 313 313 313 313 313 313 313 313 312 314 314 310 311 310 307 307 312 313 314 314 313 313 313 313 314 312 311 311 311 312 312 313 314 314 314 314 313
315 314 314 314 313 313 312 313 312 311 311 312 313 310 309 311 310 310 308 306 306 305 307 308 309 309 309 311 311 311 312 312 312 313 312 311 311 313 312 311 314 314 314 317 314 310 312 314 316 315 313 312 311 311 311 311 311 312 313 312 313 314 312 310 309 308 307 311 313 312 313 313 314 314 314 314 313 312 312 312 313 314 314 315 315 315 315 315
315 314 314 313 313 312 311 312 312 311 311 312 311 308 308 310 309 309 309 308 306 305 308 308 309 311 311 311 311 311 313 313 313 313 312 312 312 313 312 312 314 314 313 315 313 313 314 315 315 312 310 309 308 309 311 312 312 313 313 312 312 312 312 309 309 309 307 310 314 313 313 314 315 315 314 314 314 314 314 314 315 315 316 315 315 315 315 315
315 314 313 313 312 311 311 312 311 311 311 312 310 308 309 308 307 308 309 310 308 306 308 308 309 311 311 312 311 310 312 312 313 314 312 312 312 313 312 312 313 314 313 313 314 315 315 314 311 307 307 309 309 309 311 312 312 314 314 312 312 314 312 310 310 309 307 308 311 312 313 314 315 314 314 314 312 313 312 311 312 313 314 315 315 316 314 314
315 313 313 313 311 311 311 312 311 311 312 311 309 307 309 308 307 308 309 308 308 307 307 307 309 313 312 311 312 311 311 311 313 314 312 312 312 312 313 312 313 313 312 312 314 316 314 310 305 305 309 311 311 310 312 312 311 314 317 315 315 315 313 312 311 309 308 308 309 312 312 312 315 315 314 312 308 308 308 308 309 310 311 312 312 314 312 312
314 313 313 312 311 311 311 311 310 310 312 310 309 308 308 307 306 308 308 307 309 308 306 307 310 313 312 311 311 311 310 310 311 312 311 311 311 311 311 310 312 313 313 312 313 315 313 306 304 307 310 312 312 311 314 315 312 314 316 316 316 315 314 315 314 311 312 311 309 311 309 310 314 314 314 313 310 310 310 310 311 311 311 310 309 311 311 311
314 313 313 312 311 312 311 311 310 310 311 310 310 309 309 307 307 308 308 308 309 308 307 308 309 310 311 312 312 311 311 311 310 310 311 311 311 310 310 310 310 312 312 311 312 313 309 305 306 311 312 315 314 312 316 317 313 313 314 315 316 316 317 319 317 314 312 311 309 309 310 310 312 314 315 313 311 312 312 313 314 313 311 309 309 310 310 309
314 313 312 311 311 311 311 310 310 310 311 310 310 310 309 307 307 307 307 308 308 309 309 307 306 309 311 311 311 310 311 312 311 311 310 310 310 309 311 311 310 310 310 311 313 311 308 306 309 313 314 314 313 312 315 315 313 315 315 315 316 317 321 321 317 314 313 312 311 311 313 311 310 313 315 311 311 313 313 314 316 314 311 309 309 309 309 309
314 313 312 312 311 311 310 310 309 310 311 310 310 310 309 308 307 306 308 308 308 309 308 306 306 309 311 309 310 310 310 312 313 313 309 308 309 310 312 312 312 312 309 311 313 311 309 312 313 313 313 313 315 316 316 315 315 316 312 313 316 317 320 320 315 313 312 311 312 313 314 311 309 314 314 310 311 313 314 315 315 313 311 311 310 310 311 310
314 313 312 312 311 311 310 309 310 310 309 309 310 310 308 307 307 307 308 307 308 307 306 307 308 310 310 309 309 309 309 311 313 312 309 308 308 309 311 311 310 311 309 312 315 312 310 312 312 312 313 314 314 312 312 317 317 313 308 312 316 317 317 317 314 312 311 311 313 314 312 310 309 313 313 310 310 313 313 313 313 312 313 314 313 313 312 310
313 313 312 312 311 310 310 309 309 309 308 309 311 310 308 308 307 307 306 307 310 307 305 306 309 311 311 309 309 310 310 311 310 310 310 310 309 308 308 308 309 312 314 315 315 312 309 308 309 312 313 312 309 306 308 315 314 310 311 314 316 316 315 314 312 311 311 312 312 310 309 309 308 313 315 312 311 312 313 312 311 313 314 315 315 315 311 308
313 313 312 312 311 310 310 310 309 308 308 310 311 309 308 309 309 307 307 309 310 308 305 306 309 311 311 310 311 310 311 311 311 311 311 310 310 309 309 310 311 314 315 314 313 312 311 310 311 312 309 309 310 308 307 308 309 311 315 315 314 314 314 313 312 311 312 312 309 306 307 309 309 311 314 312 311 310 310 310 311 313 313 314 317 315 310 308
313 313 312 312 311 310 311 311 309 308 309 310 310 309 307 309 308 307 307 308 309 309 308 308 308 310 312 312 313 312 312 313 311 312 313 312 311 311 313 314 313 314 313 312 314 314 315 314 312 311 308 309 314 313 308 308 309 312 314 313 313 313 313 313 314 312 313 311 307 305 307 309 310 311 311 311 312 310 308 309 311 312 312 314 317 315 311 310
313 313 312 311 311 310 311 310 309 308 309 310 309 309 309 308 308 309 307 306 309 310 310 310 308 311 312 311 312 312 313 313 312 312 313 313 313 312 315 316 316 318 316 315 315 314 314 315 312 313 311 310 315 314 311 311 311 312 314 313 312 314 313 314 313 311 311 310 306 305 308 310 311 311 312 312 312 311 308 307 309 310 310 311 312 311 312 314
313 312 311 310 310 311 311 310 308 308 309 309 308 309 311 309 309 310 308 307 310 308 308 311 310 311 312 311 312 313 312 312 311 312 312 313 313 313 314 313 314 319 317 315 316 314 314 314 313 314 313 311 314 315 315 315 312 314 316 314 313 314 314 314 312 312 312 310 307 305 308 312 311 310 311 310 309 309 307 306 307 308 308 308 308 309 313 315
313 312 311 310 310 311 311 310 308 309 310 309 308 308 310 309 309 310 308 308 310 308 309 311 311 312 311 311 312 312 312 313 312 312 313 313 313 313 313 311 312 316 316 314 314 314 314 313 312 311 311 312 313 315 316 315 313 313 313 311 312 314 313 310 308 309 309 309 309 308 310 312 312 311 312 311 308 308 307 306 306 309 308 308 312 315 317 317
312 311 311 310 310 311 310 309 308 309 310 309 308 309 310 310 311 312 309 309 310 309 310 311 312 313 312 310 312 312 312 313 313 313 313 314 314 314 314 313 312 314 314 315 315 313 312 312 312 311 310 310 312 313 315 316 314 311 310 310 310 313 315 311 306 304 305 308 311 310 311 312 310 311 313 311 310 310 310 308 308 312 311 311 316 320 321 322
311 310 311 310 311 311 309 309 309 309 310 309 308 310 311 309 311 313 311 310 310 310 311 311 312 313 312 311 312 312 312 313 313 313 313 313 313 313 313 313 313 312 312 315 316 315 314 312 313 314 314 310 308 311 314 315 314 311 312 312 309 310 313 311 309 308 307 309 311 309 310 310 308 310 313 312 311 311 311 309 307 311 314 314 319 322 321 321
310 311 311 311 311 311 309 309 309 310 311 310 309 312 315 311 311 313 311 310 310 310 311 312 312 312 312 312 312 312 313 314 313 313 314 313 313 314 313 312 313 312 311 313 313 315 317 313 312 313 314 311 310 313 313 312 312 312 312 312 311 312 312 309 310 311 310 310 311 309 307 307 309 310 311 311 311 311 311 310 308 309 313 315 318 321 319 319
311 311 312 311 311 310 309 309 310 311 311 310 309 312 317 316 313 314 312 310 310 311 311 312 312 311 311 312 312 312 312 313 313 312 313 313 312 313 312 312 314 311 309 312 312 313 316 314 313 312 313 312 312 313 314 313 311 309 308 309 311 313 311 310 310 310 310 310 310 310 307 307 311 311 309 310 311 310 309 313 313 312 314 316 316 319 320 321
311 313 312 312 311 310 309 310 312 313 312 311 309 311 315 317 315 314 313 312 311 310 311 314 312 311 312 312 312 312 312 312 313 313 313 312 311 311 311 311 314 310 309 312 314 314 313 312 314 313 311 313 314 314 316 316 312 309 309 310 311 311 310 311 309 308 310 309 309 310 308 308 311 310 309 309 310 309 309 312 316 314 313 313 315 317 320 321
312 313 312 311 312 310 311 313 314 314 312 311 311 313 315 315 314 314 311 311 312 310 311 314 313 311 312 311 311 312 311 311 312 313 312 311 311 311 310 311 313 311 309 312 313 314 312 310 314 315 313 314 314 312 311 315 315 313 311 311 313 313 311 312 312 309 308 308 308 308 308 310 312 310 309 310 310 308 306 309 314 315 314 315 317 317 316 316
312 313 311 311 311 310 312 314 314 314 312 310 311 313 313 313 313 312 310 311 315 313 312 313 314 314 313 311 312 312 311 311 312 312 313 312 312 312 310 310 311 310 310 311 313 315 314 314 315 315 314 313 312 309 306 309 315 314 312 313 313 313 313 313 314 311 307 305 306 306 308 311 313 309 308 309 309 305 302 305 310 313 313 314 317 315 313 312
313 312 311 310 311 310 312 314 313 313 312 310 311 311 311 313 314 312 311 313 315 314 314 315 314 312 312 312 312 312 311 312 312 312 313 312 312 312 311 310 309 310 310 311 312 314 314 316 315 312 312 311 310 310 308 310 313 312 312 313 312 314 315 313 312 311 309 307 307 308 309 311 313 311 309 308 307 305 304 306 309 311 312 312 314 315 313 312
311 311 311 311 311 311 312 314 314 314 312 311 312 312 310 312 313 311 311 313 316 316 317 318 313 311 314 314 312 312 312 312 313 312 313 313 311 311 313 312 309 310 312 312 312 312 311 314 315 313 313 313 312 312 312 312 312 312 313 313 312 314 314 311 309 310 310 311 311 310 311 311 313 314 312 310 311 312 311 309 308 311 313 312 312 312 312 312
309 309 310 310 310 311 312 313 314 314 313 311 312 312 312 312 311 311 312 314 316 318 317 316 314 315 317 315 312 313 314 314 315 313 312 313 311 310 312 312 310 310 314 316 315 312 312 315 315 313 315 315 315 316 315 315 313 313 315 314 312 313 312 311 310 310 310 312 312 311 312 310 309 311 311 311 312 313 312 311 309 309 311 311 312 312 311 312
309 310 310 309 309 310 311 311 313 314 313 311 311 312 314 314 312 312 314 314 314 316 316 316 316 317 316 314 313 314 313 315 317 314 311 312 312 311 310 311 312 313 316 318 315 312 314 316 314 313 314 314 315 316 317 319 316 315 318 317 313 312 313 314 312 311 312 312 310 312 313 312 310 310 310 311 312 313 313 314 313 312 313 312 311 311 311 313
308 308 309 309 309 310 311 311 313 314 312 311 311 312 313 314 313 312 313 313 313 315 316 316 316 316 313 313 314 314 314 315 316 315 313 313 313 311 308 309 310 312 315 316 314 312 313 313 313 314 314 313 314 317 319 319 318 317 318 316 313 312 313 314 314 313 314 312 311 313 314 313 312 311 311 312 313 314 315 316 314 313 313 312 310 312 314 315
305 305 304 305 308 309 310 311 313 313 312 311 312 312 312 313 314 314 313 312 312 315 317 316 317 316 314 313 314 314 315 314 314 316 315 314 313 311 309 309 310 310 312 312 312 313 312 311 314 315 314 314 317 319 319 318 317 318 318 315 313 312 313 314 315 315 315 313 313 314 315 314 312 310 311 312 313 313 314 313 311 310 311 311 313 317 317 315
301 302 301 303 306 307 308 310 312 312 312 311 311 312 312 313 314 314 313 313 314 315 316 317 318 317 315 314 313 314 314 312 313 316 315 313 314 312 311 311 311 311 312 312 312 313 312 311 315 314 312 314 316 317 317 317 316 317 318 315 313 312 313 314 314 315 315 314 314 316 318 316 313 310 311 312 313 313 312 310 310 313 316 317 318 318 316 314
302 303 302 303 304 305 307 310 311 312 311 311 311 311 311 313 313 313 314 314 316 316 315 316 318 316 314 315 316 316 315 313 314 315 312 312 313 312 312 312 312 312 312 311 311 311 310 313 316 313 310 312 314 315 315 314 314 315 316 315 313 313 313 313 314 315 315 315 314 315 318 316 313 310 311 312 312 311 311 311 311 314 318 319 318 317 314 313
299 300 301 305 306 304 306 309 311 312 311 310 311 311 311 312 312 313 314 313 315 317 316 316 317 316 314 314 316 317 315 316 319 316 311 312 313 312 313 314 313 312 312 311 311 311 310 312 313 311 310 312 312 312 311 311 311 312 313 313 313 313 313 313 314 314 315 315 315 315 315 315 311 310 311 312 311 311 312 313 312 313 315 315 315 316 314 312
298 298 300 305 307 304 305 307 310 312 311 310 311 311 311 311 311 312 314 313 313 315 316 316 316 316 315 314 316 317 316 316 317 314 311 313 315 315 316 316 313 312 312 311 311 312 311 311 311 310 311 312 312 310 310 311 310 311 312 312 313 313 313 313 314 315 315 315 314 315 314 313 311 311 311 311 311 311 312 312 313 314 313 311 311 312 310 308
Wind_Speed
37 36 34 32 31 31 28 25 25 24 23 23 22 22 23 23 22 22 22 22 22 23 25 25 26 26 25 24 23 23 21 20 19 16 14 18 21 16 10 10 13 12 12 12 9 7 5 4 4 4 4 4 1 1 2 1 0 2 3 3 3 3 2 4 7 4 1 5 8 8 9 9 7 6 3 3 3 1 2 3 2 2 3 0 2 2 6 11
38 36 34 33 32 31 29 25 24 24 23 23 23 23 23 23 23 23 22 22 21 22 24 25 25 26 25 25 23 21 18 16 12 11 19 22 16 14 12 12 16 14 10 11 12 11 7 4 5 5 3 3 0 0 2 1 1 1 2 3 3 3 2 2 5 4 1 4 9 8 7 5 5 8 6 5 5 4 5 5 4 4 5 5 2 3 8 12
38 36 35 34 31 30 29 26 25 25 24 23 23 23 23 23 23 24 23 22 20 21 24 24 24 24 24 22 20 18 15 9 4 9 23 26 19 15 16 17 16 12 10 11 12 14 10 6 8 6 2 2 1 1 2 0 1 0 2 4 3 3 2 1 3 4 1 2 7 9 5 3 2 5 5 5 5 5 8 6 6 7 9 9 5 6 11 13
39 37 35 34 31 29 27 26 26 26 25 24 24 24 24 24 24 23 23 22 20 22 24 24 23 22 21 19 17 17 12 3 5 13 19 24 23 19 18 18 15 11 10 11 11 13 11 7 7 3 2 3 0 1 2 1 1 2 2 2 3 3 3 3 3 2 2 1 5 8 6 5 3 2 4 6 5 6 9 8 9 10 10 11 8 10 16 16
39 37 36 34 32 30 28 26 26 27 25 24 25 24 24 24 23 22 23 22 21 21 23 22 22 21 20 18 17 17 11 2 5 10 13 18 24 24 21 17 13 12 11 11 10 10 9 7 6 2 2 4 2 3 2 1 1 3 1 2 3 2 2 4 2 2 2 1 4 9 8 6 5 3 5 7 8 4 3 5 7 7 4 9 10 13 17 18
38 37 36 35 33 32 30 27 26 26 25 24 25 24 24 24 23 22 21 21 20 21 22 22 21 20 19 18 19 18 11 3 1 4 11 18 23 24 23 18 13 12 13 11 9 9 8 6 6 5 2 2 4 4 2 1 2 2 2 2 2 0 2 3 2 2 2 3 6 7 5 6 7 5 2 7 9 1 4 1 2 3 1 7 12 14 16 18
37 36 36 35 33 33 30 26 27 26 24 25 24 22 23 24 22 21 20 19 20 22 23 22 22 21 20 20 18 13 8 4 1 1 7 14 21 24 22 18 15 14 14 12 10 9 6 6 7 5 3 2 3 3 2 2 2 1 3 3 2 1 2 2 1 3 2 3 3 3 4 6 8 5 2 7 10 2 4 2 2 0 4 8 12 13 15 18
37 36 37 36 34 32 30 27 26 26 25 24 23 22 22 23 21 19 19 18 21 24 23 23 23 22 23 20 13 6 6 4 2 2 3 10 18 22 21 18 16 16 16 15 13 10 7 7 7 4 3 3 2 4 3 4 1 1 4 5 3 1 3 2 2 4 2 1 2 3 5 4 3 2 2 8 9 4 3 2 2 3 5 8 10 12 14 15
37 37 37 36 34 33 30 27 27 26 24 23 24 23 21 21 21 19 18 19 23 25 24 25 24 24 24 16 8 6 7 6 3 2 1 8 15 20 20 17 18 18 16 16 13 10 8 6 5 4 3 1 3 5 3 4 3 1 4 5 5 3 3 3 3 4 2 2 2 5 5 2 2 1 5 8 4 1 1 2 3 4 6 7 9 11 13 14
38 38 37 36 35 33 30 28 28 26 24 23 23 22 21 20 19 18 18 20 24 25 25 25 25 27 23 13 8 8 7 7 7 3 2 9 14 18 19 16 19 19 14 12 11 11 8 5 5 3 2 2 3 2 1 3 1 5 8 7 6 3 2 0 4 4 2 3 1 5 5 2 2 1 5 3 2 1 3 4 4 5 7 8 8 9 12 13
38 38 37 36 35 32 30 29 28 26 24 24 22 20 20 20 19 18 17 20 23 25 26 26 27 28 19 12 10 7 4 6 8 5 5 10 14 17 17 14 18 19 14 9 10 13 8 6 9 4 0 4 5 2 1 1 2 7 10 10 6 3 4 2 4 4 1 4 0 2 4 2 3 3 4 4 3 2 6 6 5 7 7 7 7 7 9 10
38 38 37 36 35 32 30 29 28 26 24 23 21 20 19 19 18 17 17 20 23 25 26 27 28 25 14 8 7 4 5 6 6 7 8 11 13 16 14 12 15 16 14 8 10 14 7 9 14 4 1 5 6 3 3 1 2 5 5 6 5 3 4 3 2 1 2 3 0 1 3 4 7 8 3 4 2 1 4 6 6 7 6 5 6 5 7 9
38 38 37 36 35 33 31 29 28 25 23 22 20 20 19 18 17 16 17 19 22 25 26 27 27 21 11 5 4 5 7 6 7 8 9 10 11 14 12 12 13 12 12 9 11 13 8 11 12 4 1 3 3 2 5 3 0 4 1 2 5 4 3 2 2 1 1 2 2 2 4 6 8 7 3 4 0 1 4 6 6 6 5 5 5 5 6 8
39 37 37 36 35 34 32 30 28 25 23 21 21 20 19 17 16 15 16 18 22 24 25 27 25 16 8 3 3 7 9 8 8 9 10 10 11 12 11 11 11 10 9 8 10 11 9 12 9 6 2 2 4 4 5 4 1 3 3 1 2 4 3 3 2 2 3 2 2 3 6 5 3 2 2 2 1 2 5 6 6 5 5 5 5 6 7 8
39 38 37 35 35 35 32 30 28 25 23 22 21 20 18 17 15 14 15 16 20 23 24 25 20 10 5 2 3 9 10 8 9 10 10 11 12 10 9 11 9 7 7 7 10 11 11 13 9 6 3 1 5 6 5 4 1 2 3 3 1 3 2 3 2 2 1 2 1 4 5 5 3 1 3 2 0 3 7 6 5 5 5 5 5 6 7 7
39 38 37 35 35 35 33 31 28 25 23 23 21 20 18 16 14 13 14 16 20 23 22 19 15 8 4 3 4 8 9 6 10 11 11 13 11 9 11 12 8 7 8 9 13 12 9 9 4 1 3 3 6 6 5 4 2 0 2 3 3 3 2 2 2 2 3 2 3 5 3 3 2 1 3 1 0 2 5 6 5 6 6 6 5 6 6 7
40 38 37 36 35 35 34 31 29 27 24 23 21 19 17 14 14 13 14 17 20 22 18 13 12 6 1 3 5 7 6 6 11 13 13 13 9 12 15 9 7 9 11 11 11 7 4 4 1 1 2 2 3 5 6 5 4 3 1 1 1 2 2 2 3 2 2 2 5 5 5 6 2 0 2 2 1 1 4 6 5 6 5 5 5 5 6 7
39 38 37 36 35 35 34 31 30 27 25 25 21 18 16 15 16 16 18 20 19 16 10 8 9 4 2 5 5 5 6 10 13 12 13 12 11 14 12 6 7 10 9 7 4 2 2 2 1 3 3 2 3 6 7 4 6 7 5 4 2 2 3 3 2 1 1 3 5 6 7 11 9 7 6 4 4 4 7 7 6 6 6 6 5 6 7 7
39 38 36 35 35 35 34 32 31 28 28 26 21 20 17 15 15 14 16 16 12 8 5 7 7 2 3 6 4 6 11 14 13 10 10 12 13 11 7 7 9 7 6 4 2 1 1 2 2 4 6 6 8 9 5 2 5 8 6 4 4 4 3 2 1 2 1 3 6 8 9 11 10 11 10 5 5 5 9 8 7 7 7 7 6 6 7 8
39 38 37 35 36 35 34 33 30 30 30 27 27 21 14 12 10 7 7 5 3 0 1 7 6 1 3 4 7 13 14 11 7 6 11 13 14 11 5 4 5 3 4 4 3 2 1 4 6 6 7 9 8 4 3 4 3 5 5 2 2 3 2 2 2 2 1 4 5 6 8 10 11 11 12 8 4 6 10 9 9 9 8 8 8 8 8 9
40 39 37 35 36 35 34 33 29 30 30 28 27 14 6 9 7 9 8 3 2 2 1 5 4 2 3 5 12 15 10 6 4 4 10 12 13 11 2 1 6 4 1 1 3 2 2 6 6 2 2 5 6 5 6 6 5 4 4 3 2 2 1 2 1 2 1 3 3 1 6 11 12 12 11 9 8 10 11 11 12 11 10 8 8 9 9 8
40 38 37 36 35 34 33 31 29 30 29 25 17 4 1 4 8 15 12 5 2 2 3 4 3 3 4 5 12 9 4 6 5 3 6 9 8 6 2 3 8 5 1 2 4 3 4 6 3 3 3 7 6 4 6 6 5 3 2 3 3 2 1 1 2 3 1 2 1 1 5 11 11 10 10 11 11 10 9 11 11 10 10 9 7 8 8 8
40 39 38 37 35 34 32 29 29 30 28 21 10 4 4 10 19 21 10 5 4 2 2 2 2 5 5 4 8 5 4 6 7 5 5 8 5 2 5 5 5 5 4 6 6 5 5 2 3 5 5 8 6 2 6 7 3 2 3 3 2 1 1 2 3 2 1 1 2 2 5 10 10 9 10 10 8 7 7 9 10 9 10 10 6 6 6 9
40 39 38 37 35 33 31 29 29 28 25 18 9 6 11 19 25 19 6 4 4 1 1 1 1 4 4 4 6 6 4 3 5 8 8 8 5 2 5 4 5 6 4 5 5 5 3 2 2 5 4 6 6 3 5 6 3 1 2 3 2 3 3 1 3 2 1 1 1 3 6 8 6 6 7 4 2 5 6 7 10 9 10 9 7 8 9 10
41 40 39 38 34 33 33 28 25 24 20 13 9 8 15 21 21 15 6 2 3 2 1 1 0 3 3 3 3 4 4 3 1 4 7 8 6 4 4 2 2 5 4 4 5 3 2 2 1 5 4 4 6 5 5 5 4 2 4 3 2 5 5 3 3 3 2 2 1 2 6 5 1 2 6 1 1 5 3 4 9 8 6 6 7 9 9 9
42 40 40 37 34 37 31 19 19 22 16 10 11 12 17 19 17 11 5 2 3 3 2 4 2 5 6 3 3 3 5 4 2 3 5 6 4 4 4 2 1 2 4 5 3 1 2 1 1 5 6 5 6 5 4 4 4 2 3 2 3 5 7 6 5 3 2 1 1 1 5 4 2 4 4 1 4 7 4 6 9 6 4 4 5 6 5 6
43 41 41 37 37 38 23 11 19 22 10 8 14 17 17 16 13 7 3 1 4 4 4 2 1 5 8 2 3 6 5 6 4 3 3 3 2 1 3 5 2 2 3 3 3 1 4 4 1 3 5 5 5 5 4 5 5 2 1 2 5 6 7 7 5 2 1 1 0 0 1 4 6 4 1 3 5 8 6 8 7 3 3 4 4 4 4 5
43 43 41 37 39 33 17 16 24 17 7 10 17 18 17 15 9 3 2 3 3 3 4 2 0 5 4 1 2 2 1 4 6 4 2 3 3 1 3 6 5 5 2 2 4 1 2 4 5 5 4 4 4 1 2 6 3 0 1 1 4 5 5 4 3 2 2 2 4 2 2 4 6 3 1 2 4 7 8 8 4 1 2 3 2 3 3 3
45 44 40 39 37 25 17 23 25 17 14 18 20 19 19 14 6 2 1 3 2 2 2 3 4 4 3 3 3 2 1 2 2 2 1 3 3 2 2 3 5 9 4 1 2 1 1 2 2 4 4 3 2 3 1 2 1 3 4 4 5 5 5 3 2 2 2 3 5 2 2 5 6 3 2 1 2 7 8 6 3 2 2 2 2 3 3 3
46 44 41 41 34 22 18 21 23 21 18 20 22 21 17 9 4 4 3 3 4 3 2 2 3 4 8 8 3 1 3 2 2 3 2 2 4 5 2 2 4 7 4 4 5 2 1 0 1 0 1 3 4 5 3 2 3 7 6 6 7 4 3 3 2 2 1 4 2 3 3 4 4 3 3 3 2 4 4 1 1 2 2 2 2 2 3 3
47 43 43 40 32 25 17 12 21 24 19 22 23 17 11 4 1 6 4 1 4 3 2 2 2 5 14 14 6 2 3 3 3 6 5 3 3 4 3 2 3 4 2 3 4 2 1 2 0 1 1 2 5 6 6 3 3 4 3 5 6 2 1 2 2 1 4 4 1 3 3 3 5 4 1 1 3 3 3 1 1 2 2 2 2 2 3 3
47 44 43 37 32 28 16 13 25 26 22 26 20 8 5 4 2 5 3 2 4 5 5 5 3 6 13 10 5 4 4 3 4 7 7 6 5 5 4 3 4 3 3 5 3 1 2 2 1 2 1 2 4 6 5 1 2 2 4 7 5 2 2 3 2 2 4 2 2 2 2 3 8 7 5 8 8 5 5 4 4 3 3 3 3 3 3 4
47 45 40 34 32 26 16 23 31 26 27 29 14 2 3 5 7 7 5 3 2 2 3 5 3 6 11 9 5 5 3 2 5 4 3 4 6 5 0 1 4 2 3 5 4 3 3 1 1 3 2 3 3 4 4 4 4 4 6 6 5 4 3 4 3 1 3 0 2 1 0 3 7 5 7 13 9 1 2 5 5 4 5 6 5 5 5 5
47 45 37 31 31 21 16 28 31 28 31 23 8 4 5 7 8 6 7 4 0 2 3 6 9 9 8 5 4 5 2 1 5 4 3 5 7 7 4 5 5 1 4 4 3 5 5 3 4 4 2 3 4 2 2 5 4 2 1 1 3 4 3 4 3 1 2 1 2 1 2 4 3 1 3 9 7 4 3 4 4 5 6 5 5 6 5 4
46 43 37 30 25 16 19 30 31 33 29 12 4 8 8 10 8 7 9 5 2 4 3 6 11 11 6 1 1 3 0 1 4 4 6 8 8 9 8 8 7 3 5 5 2 3 3 2 1 1 1 3 4 2 1 5 4 1 1 0 2 2 2 2 1 0 1 1 2 3 3 4 3 5 6 5 4 5 4 3 3 5 5 3 4 5 3 3
43 37 31 27 21 17 25 31 32 34 23 6 6 8 8 9 4 4 7 5 5 9 10 7 7 8 7 3 2 5 1 1 5 5 5 5 5 8 8 7 8 7 6 6 3 2 2 1 2 2 0 1 0 1 0 1 2 2 2 3 2 1 3 4 1 2 1 3 2 3 4 4 2 7 7 2 4 6 3 3 5 4 2 2 3 3 3 2
36 28 20 19 21 22 28 32 33 30 15 4 9 9 7 5 1 2 5 6 8 12 13 8 4 5 8 6 6 8 3 3 5 5 5 4 3 7 8 5 7 11 8 3 1 3 4 2 2 1 1 2 2 1 2 2 1 2 4 5 3 1 1 2 1 1 0 4 2 2 5 5 2 4 2 2 5 5 1 1 4 2 1 2 2 3 3 1
28 21 12 14 22 23 29 33 31 21 7 4 10 10 5 2 1 3 5 7 10 10 9 7 3 2 7 8 7 8 7 5 6 5 5 5 4 7 11 6 5 9 6 1 0 2 2 3 2 1 0 1 2 1 2 1 2 1 2 3 2 2 2 2 2 2 2 4 2 2 3 4 5 4 2 3 4 2 2 2 1 2 1 1 2 3 3 0
23 12 5 13 22 24 32 34 24 12 4 5 11 9 2 2 1 1 4 7 7 7 7 5 1 1 5 8 7 9 8 6 8 7 4 5 3 5 12 8 4 7 5 1 1 2 1 1 2 1 1 0 1 3 5 4 1 2 1 2 1 1 1 2 2 1 2 3 2 2 1 3 5 4 5 9 5 1 1 2 1 1 0 1 1 2 2 1
13 5 3 16 24 25 32 27 14 7 6 7 8 5 1 2 1 1 2 3 3 3 5 4 4 4 5 5 5 7 7 5 9 7 4 6 5 3 8 8 5 7 5 3 1 2 1 1 3 3 0 2 3 3 4 5 5 4 5 6 3 0 1 1 1 1 1 3 2 3 3 3 2 2 6 8 3 1 1 1 1 0 1 1 2 2 2 2
4 3 5 19 28 28 25 15 6 7 7 6 4 1 0 1 3 3 1 1 1 1 1 3 5 5 5 5 5 5 5 4 7 6 3 6 8 4 4 6 7 9 7 4 3 3 1 1 4 4 3 4 2 1 2 2 1 2 4 6 6 5 3 3 4 1 0 2 2 1 5 4 1 2 4 4 2 1 1 1 1 1 2 2 2 2 3 2
3 4 8 24 34 30 18 6 4 6 5 5 3 2 1 2 4 7 3 0 1 1 2 3 3 3 5 6 5 7 8 6 7 7 5 8 9 5 2 2 7 11 8 4 2 2 1 3 4 3 2 2 1 1 1 3 2 1 1 2 3 4 5 6 6 4 3 1 1 2 3 4 1 1 3 3 1 1 1 3 3 2 3 3 3 3 3 3
3 4 13 31 37 26 11 4 5 5 4 2 2 2 2 1 3 6 5 3 1 1 2 2 2 2 3 3 5 9 10 7 7 7 5 5 5 1 3 6 10 11 8 4 3 2 2 3 4 2 1 1 1 0 1 1 1 2 3 3 4 4 3 2 2 3 5 4 3 2 4 4 1 1 3 3 3 2 3 5 4 3 3 3 4 4 4 2
3 3 7 26 35 22 7 5 7 9 7 4 3 2 1 0 2 6 7 6 2 2 4 3 1 2 2 3 5 9 11 6 5 7 3 3 3 1 3 9 12 11 7 4 5 6 3 3 5 4 2 2 2 2 2 2 3 5 3 3 4 3 4 3 2 2 3 5 6 5 6 5 1 1 2 3 3 4 3 4 5 4 2 2 3 3 3 2
3 3 2 12 23 14 4 4 6 9 9 7 6 6 2 0 1 3 6 6 1 2 4 2 1 2 4 4 3 5 9 5 3 6 3 2 2 1 1 7 11 10 3 2 5 6 3 3 6 7 6 5 6 7 6 5 4 3 1 3 6 8 8 5 2 3 5 5 6 7 8 3 2 1 3 3 3 4 3 3 4 4 3 3 3 2 2 2
2 2 2 4 6 5 2 1 3 8 10 9 8 7 5 4 2 1 2 4 2 1 3 2 2 3 4 7 5 5 9 3 3 4 6 4 3 1 0 3 6 4 1 3 7 6 2 2 5 10 11 10 12 11 6 6 6 7 8 8 10 11 11 6 3 4 6 4 4 10 11 5 3 4 5 5 5 4 3 3 2 3 4 4 4 4 3 2
2 1 2 2 1 2 2 2 5 7 10 11 8 7 8 6 5 2 1 2 3 3 2 2 3 6 7 10 7 6 10 5 2 3 5 4 2 1 1 1 1 1 3 2 6 5 2 4 7 11 14 13 11 8 6 8 10 12 11 10 11 11 11 9 8 9 6 5 5 13 14 11 8 8 8 7 6 4 3 3 2 2 3 4 4 4 2 2
2 2 1 1 0 2 3 6 10 9 12 12 5 7 12 9 7 7 2 1 2 3 1 1 4 8 11 13 8 5 6 5 2 2 3 3 3 2 2 1 1 1 1 1 3 2 3 7 8 9 14 13 4 4 6 8 7 7 9 12 13 13 13 14 15 13 8 7 13 15 15 17 13 10 10 8 6 6 4 3 3 3 3 3 3 2 2 3
2 3 1 2 1 1 1 6 11 10 12 12 4 6 14 13 9 6 2 3 4 3 2 4 6 7 9 11 9 7 8 7 6 5 4 4 4 3 3 2 1 1 2 2 2 1 3 6 5 7 12 12 3 4 5 6 5 5 8 12 14 14 15 15 15 14 11 11 17 12 9 13 12 12 12 8 4 3 1 1 2 2 2 2 3 3 4 4
1 2 1 1 2 1 0 5 11 10 9 9 7 6 10 13 11 5 1 3 6 4 3 4 7 6 5 7 6 6 9 11 9 9 9 7 4 4 4 3 3 2 2 3 2 1 3 3 3 4 7 9 4 3 3 4 5 6 6 9 11 13 14 15 15 16 13 13 18 12 6 9 8 10 8 5 2 1 1 2 3 1 2 3 4 4 5 4
2 2 3 2 2 1 1 3 8 10 8 8 10 7 9 14 12 6 2 1 2 5 5 7 9 7 3 5 5 4 7 6 4 8 13 12 8 6 5 4 6 8 5 5 4 3 4 2 2 4 6 7 5 6 5 3 2 2 4 9 13 13 14 15 15 14 13 14 16 12 9 10 5 9 6 4 5 5 4 5 5 4 4 4 4 5 4 3
3 3 2 2 2 1 2 0 4 9 7 7 10 8 7 9 8 6 5 1 2 1 4 9 11 7 4 7 7 5 5 5 3 3 7 6 3 4 3 2 7 10 9 7 4 3 6 5 3 5 7 5 2 4 7 6 2 2 6 13 17 17 16 14 10 9 11 13 12 10 11 7 6 9 8 7 7 8 7 6 5 5 5 3 4 5 3 3
Wind_Direction
184 185 186 189 190 189 186 186 188 190 191 192 191 189 189 188 190 190 190 192 191 190 191 191 191 193 196 200 202 203 202 205 209 207 221 238 234 234 242 247 261 271 258 244 241 229 203 196 184 158 162 156 355 252 164 15 306 224 190 176 176 163 182 179 176 179 107 141 157 170 194 190 159 164 173 165 190 153 161 197 178 184 229 200 71 107 147 153
184 184 185 186 187 185 184 185 186 189 191 191 192 191 188 185 188 188 186 190 188 186 188 187 188 189 192 195 196 194 189 194 198 206 226 235 238 236 239 246 253 262 254 232 227 216 200 198 171 151 174 184 171 254 192 283 277 194 143 185 191 162 133 173 168 159 102 130 146 164 195 209 166 156 170 191 175 171 205 201 202 215 203 187 167 157 160 163
184 183 183 184 184 182 183 186 186 190 191 190 190 188 187 184 186 186 182 185 184 181 183 183 186 187 190 190 186 183 178 179 208 233 227 230 238 233 228 234 240 248 241 226 224 220 218 199 170 161 172 202 165 215 206 243 279 179 189 201 168 142 114 141 178 156 134 104 144 156 172 217 162 142 171 192 165 185 216 204 196 214 210 190 158 155 168 170
184 182 180 183 183 180 182 185 187 190 190 187 187 185 184 183 184 183 180 182 180 179 180 181 184 186 187 184 180 175 160 141 240 234 232 233 233 225 223 227 226 232 227 221 226 226 224 185 160 161 182 197 29 247 208 91 253 166 203 205 122 140 139 150 186 142 112 118 154 142 149 186 151 146 182 177 172 202 225 219 212 216 205 182 152 158 173 176
184 181 179 181 182 182 182 182 184 187 186 184 184 182 182 183 183 179 179 181 179 176 176 178 180 183 183 178 174 166 150 153 235 222 226 227 223 222 224 224 220 216 207 214 225 218 207 165 146 142 194 196 173 206 193 46 309 153 141 18 90 165 142 135 155 124 114 112 149 145 157 162 131 172 193 191 204 207 217 220 226 232 197 164 156 160 173 182
183 180 178 179 182 184 184 180 181 182 182 182 181 181 183 184 181 178 178 180 177 173 172 175 176 177 177 172 173 172 172 188 183 207 212 209 211 216 219 218 215 203 195 202 202 191 181 159 171 180 182 198 188 194 152 84 289 181 151 52 95 243 106 124 125 130 158 159 162 158 149 135 152 190 184 215 225 106 69 77 278 285 84 132 146 157 174 187
182 179 177 179 181 182 181 178 178 179 178 178 177 179 183 183 179 178 178 179 177 172 170 172 172 171 171 168 174 185 212 223 48 292 223 203 202 205 204 205 204 196 187 180 176 180 173 166 186 183 162 185 196 200 143 137 281 242 149 131 136 0 67 103 107 131 189 189 153 134 138 154 184 185 106 230 233 146 100 76 11 347 127 136 149 166 181 189
182 179 176 177 179 180 179 175 175 177 174 174 176 178 181 181 178 177 179 179 175 171 171 170 168 168 167 166 169 193 231 221 78 32 228 200 195 192 189 191 194 190 182 177 178 177 173 171 174 175 178 209 180 165 170 158 208 250 138 136 146 64 83 94 112 134 170 192 95 146 167 166 182 142 156 233 232 189 144 108 92 128 140 159 170 177 184 191
181 178 175 175 177 177 175 172 173 174 171 173 178 181 181 179 177 178 179 177 173 172 171 169 166 165 166 166 168 196 210 203 162 59 184 185 184 183 180 184 187 184 180 184 186 175 180 183 176 186 178 205 168 155 193 199 197 131 117 128 135 109 95 112 117 124 151 142 162 180 160 92 74 39 249 231 213 141 169 167 153 150 165 183 183 184 187 193
180 176 173 173 174 173 172 172 173 171 169 172 177 182 180 177 177 178 177 174 173 172 170 168 165 164 167 169 175 200 202 199 208 227 189 171 175 179 178 183 183 181 179 185 187 178 190 195 166 173 138 114 162 145 257 234 158 103 113 106 105 109 92 125 120 113 135 119 211 196 143 88 110 243 246 189 78 44 197 184 177 190 195 196 190 191 193 199
178 175 172 171 173 173 172 174 173 168 169 171 174 177 174 175 176 175 175 174 173 172 169 166 165 167 171 179 188 200 176 183 203 200 180 170 174 182 183 186 183 183 180 179 193 189 199 190 154 140 184 148 141 115 33 259 104 119 127 103 81 100 99 60 115 116 166 125 307 219 142 108 127 222 232 104 58 215 199 188 184 209 212 204 198 195 198 208
176 173 172 172 174 174 172 173 172 168 170 172 172 172 169 171 171 171 172 172 172 171 169 167 168 168 165 182 202 186 148 169 180 174 175 170 176 183 186 189 186 189 187 183 200 194 194 177 160 127 331 160 143 139 129 121 115 132 146 116 105 135 111 44 80 83 297 126 23 242 190 210 194 218 195 103 52 135 188 197 188 211 220 217 212 207 210 212
175 174 173 174 174 174 172 172 171 168 169 169 168 167 167 168 166 167 169 169 171 170 170 169 168 167 162 174 197 170 161 158 157 166 171 167 174 182 187 191 187 194 200 204 197 189 184 173 164 117 62 148 133 155 129 111 196 151 180 122 135 176 153 30 2 304 253 106 329 252 236 232 205 219 157 106 343 132 193 200 194 210 216 223 222 225 224 215
175 175 174 174 174 174 173 172 170 168 167 165 166 167 165 162 161 162 164 165 169 170 171 168 164 165 168 159 163 174 165 153 160 165 165 166 167 170 180 184 183 191 203 210 189 178 174 161 141 111 88 38 115 146 127 104 330 140 146 169 154 197 166 69 13 271 183 127 323 234 241 256 197 188 114 87 275 231 231 208 197 206 210 225 224 232 236 224
175 175 175 174 173 173 173 171 170 167 165 163 164 168 163 157 158 159 160 162 167 170 168 166 166 162 165 162 164 171 163 160 170 169 168 169 162 157 170 174 172 177 176 178 164 152 154 145 123 114 95 29 144 146 124 110 52 109 165 170 164 227 164 87 45 319 217 128 251 222 237 258 248 120 93 48 240 214 242 233 214 214 215 224 223 232 239 236
175 175 175 174 171 172 171 169 169 165 162 163 164 166 160 154 153 153 157 160 163 164 161 164 174 171 167 158 144 162 168 181 179 172 170 169 170 157 151 152 141 137 134 129 132 127 123 117 98 91 99 138 171 150 133 137 146 176 246 165 158 215 180 129 109 3 338 126 199 235 260 265 284 46 95 49 43 183 245 249 236 228 227 225 225 230 234 241
174 174 175 173 172 170 169 169 167 164 162 163 163 160 155 150 148 146 149 150 150 155 157 164 172 170 136 123 139 166 173 181 174 170 169 171 177 156 141 130 114 121 118 115 123 115 73 68 95 228 90 136 185 159 161 181 176 174 252 131 141 216 189 188 145 65 330 215 207 215 246 250 246 252 179 169 206 282 271 259 250 236 233 228 222 227 232 238
173 174 174 172 171 169 168 168 165 163 162 163 163 153 144 138 136 134 132 131 130 137 150 161 166 176 189 164 167 164 151 157 160 161 166 167 166 157 144 125 128 127 119 116 119 81 41 37 196 155 129 150 176 185 188 186 177 176 184 171 157 210 226 235 158 104 266 224 215 199 230 249 251 259 250 192 180 258 272 268 273 258 248 242 229 232 232 233
172 173 172 171 170 167 167 166 165 163 162 162 156 139 128 121 118 123 131 135 133 133 156 172 175 190 167 167 153 123 132 142 147 148 152 156 158 153 130 125 132 127 136 149 150 147 118 124 171 173 171 179 183 198 202 161 172 174 175 178 164 175 213 224 98 28 274 213 221 219 232 250 253 258 263 233 173 235 266 268 271 260 251 244 234 234 231 234
172 171 170 169 167 166 166 165 165 165 164 159 149 136 128 134 127 134 154 162 155 114 197 165 162 98 91 127 131 126 124 125 128 141 149 152 150 135 95 111 122 104 151 158 141 154 175 169 187 193 180 180 178 170 101 91 131 147 145 155 171 182 180 136 101 47 315 228 223 231 249 261 260 257 262 260 223 238 255 256 256 252 248 239 231 231 227 233
170 169 169 168 166 165 165 164 165 167 165 158 153 148 151 161 154 155 157 118 81 348 3 125 110 90 90 117 144 140 123 105 86 128 153 156 154 149 132 186 156 147 160 116 109 124 203 203 196 191 149 145 136 111 102 100 98 127 161 172 189 221 179 94 105 90 41 244 212 181 263 263 257 254 257 255 248 246 243 241 245 244 242 237 231 234 233 237
168 168 167 166 164 165 164 162 164 167 165 162 168 200 248 159 129 139 143 109 106 345 32 101 91 98 85 130 163 163 120 116 116 131 163 160 167 172 160 175 166 151 112 145 130 131 196 209 151 100 98 93 90 104 112 101 103 125 154 177 189 205 167 127 128 104 60 253 222 64 282 270 258 253 249 241 241 243 235 238 247 246 242 237 229 234 238 245
166 166 165 165 164 164 161 161 163 167 169 170 187 236 165 145 134 137 134 97 113 356 46 114 115 126 116 150 190 197 134 132 150 172 184 166 169 181 147 158 155 131 158 177 166 163 187 209 92 118 142 117 100 105 116 110 114 130 137 167 176 141 201 212 149 120 50 329 314 317 288 280 266 250 241 234 240 257 257 254 257 253 247 245 242 253 252 248
165 164 164 164 163 161 159 161 164 170 177 180 208 211 149 142 142 139 114 79 117 54 47 24 5 155 145 146 194 197 145 118 157 161 179 176 152 146 156 145 132 137 168 181 164 162 144 20 81 137 153 134 124 139 152 154 161 196 192 170 136 164 200 350 94 123 138 150 324 305 280 274 259 241 240 223 233 267 264 261 257 246 241 246 256 261 253 246
164 164 164 162 160 159 157 158 164 173 177 188 221 194 148 145 147 141 111 85 136 96 337 264 185 198 184 137 169 187 132 108 107 136 167 176 145 141 149 108 158 164 156 138 141 152 95 13 175 143 132 135 141 162 190 189 171 190 229 200 160 173 157 98 110 149 215 201 61 335 269 258 146 238 243 197 321 262 227 242 257 244 222 226 240 246 239 239
164 164 163 160 159 157 155 156 168 171 171 199 207 168 153 151 148 147 118 71 170 149 164 170 160 181 173 139 124 152 153 147 11 43 134 160 141 133 144 119 336 160 151 138 132 144 104 68 216 142 139 143 155 181 195 195 177 181 226 178 136 143 134 131 153 177 250 242 52 343 263 268 309 267 249 21 309 279 248 242 254 248 222 222 236 245 237 240
164 165 162 160 161 160 154 148 163 164 165 206 189 161 157 152 141 150 119 95 196 165 138 155 279 177 161 138 149 162 165 139 108 70 93 132 130 84 159 164 141 132 158 151 154 162 118 129 151 127 132 147 167 189 183 186 184 170 226 140 130 134 138 145 154 181 313 351 227 217 298 285 283 269 301 1 298 280 269 250 241 219 224 236 242 254 254 254
164 164 161 161 164 164 155 145 155 167 175 172 169 158 154 148 135 143 148 163 181 127 139 162 96 147 139 46 130 136 110 117 132 151 45 79 119 34 171 170 147 130 137 200 187 172 108 162 171 146 149 175 182 190 173 183 179 60 269 131 117 115 118 129 134 127 40 326 239 167 95 268 266 245 134 357 288 269 266 256 247 209 242 259 263 265 269 267
164 162 161 162 164 167 166 157 157 172 174 159 160 156 149 145 135 116 165 194 157 88 111 137 131 139 138 129 102 59 72 65 96 149 85 85 86 44 139 153 124 117 83 344 157 85 18 198 186 157 167 170 117 29 334 225 138 146 164 112 89 84 78 84 100 111 103 269 245 143 86 263 266 245 183 118 264 254 258 259 280 313 281 270 276 279 289 291
163 162 161 162 162 163 162 161 165 169 167 162 159 152 144 141 148 153 179 202 150 110 67 140 172 156 154 154 127 94 137 71 58 113 98 101 66 42 76 110 107 113 72 36 67 48 347 16 334 353 119 129 107 66 18 350 108 145 158 111 91 76 57 72 53 70 198 250 250 58 12 284 274 256 202 199 236 248 258 268 318 309 301 279 259 279 311 318
163 162 163 163 162 161 153 159 174 168 162 163 154 146 143 115 140 171 176 181 130 131 155 163 171 154 166 169 152 149 130 75 141 149 145 149 89 86 140 154 109 103 105 94 74 34 71 100 152 35 52 130 116 80 47 38 131 152 166 131 112 83 79 118 72 112 225 235 86 41 348 266 246 244 208 273 288 261 240 236 298 333 344 315 276 290 312 315
163 163 165 165 162 162 159 166 171 163 159 159 149 148 159 123 196 194 161 157 153 169 180 167 181 179 174 167 123 133 132 107 169 166 151 152 146 152 167 180 162 140 171 167 132 99 106 95 75 52 324 219 148 104 76 39 253 224 164 154 148 135 156 192 185 193 233 242 67 28 334 246 247 257 274 276 270 245 222 235 265 296 311 302 308 322 314 313
164 164 165 165 162 163 165 164 165 160 157 156 144 119 155 154 201 194 156 183 176 140 138 125 127 158 159 153 137 144 113 114 173 167 140 150 160 168 187 205 178 148 160 159 139 150 158 126 171 152 170 231 196 145 141 176 207 193 166 165 168 150 165 200 185 229 261 287 57 7 330 255 263 265 255 259 269 292 210 240 255 272 283 291 308 311 304 305
164 164 162 164 165 167 165 163 166 162 155 153 148 135 153 186 200 173 162 197 129 84 98 113 118 133 152 153 159 165 105 113 171 152 143 161 168 181 197 201 200 99 102 140 157 172 184 199 183 167 152 172 193 220 147 138 151 192 168 146 181 171 188 202 182 218 233 94 83 148 203 235 253 16 241 254 284 317 265 256 272 271 269 280 293 289 287 296
163 162 161 164 167 165 162 163 166 162 154 151 168 158 176 197 192 174 172 167 137 126 94 116 129 141 161 82 65 207 247 156 179 158 162 175 181 186 187 189 195 171 134 155 176 166 196 246 98 68 292 170 172 269 35 107 125 195 7 88 213 196 135 123 64 73 82 50 164 181 241 248 260 304 280 255 279 279 249 238 258 262 264 269 277 278 277 286
157 158 161 165 166 163 163 165 164 161 157 152 168 176 206 202 179 173 163 129 137 138 116 118 131 146 165 141 180 221 302 116 172 181 182 190 204 195 188 184 186 196 180 157 154 154 166 295 27 39 356 79 352 286 350 107 146 149 165 183 204 39 100 115 106 59 35 269 214 166 252 269 288 285 279 278 283 268 232 221 239 246 277 266 257 269 276 283
149 153 157 162 166 166 166 165 161 160 163 175 179 193 211 201 109 111 132 106 131 140 131 139 163 165 165 162 183 191 173 136 175 201 183 175 222 201 193 199 186 197 202 155 158 206 160 126 26 23 105 47 323 287 49 5 79 143 177 171 145 66 73 127 183 94 133 251 242 171 247 272 273 263 312 9 280 265 246 279 255 217 169 248 247 262 270 281
142 144 143 160 168 169 167 163 157 155 158 183 197 210 204 183 121 123 134 123 135 153 155 156 170 181 173 172 172 172 171 167 175 192 175 174 217 186 178 196 187 192 211 56 107 221 148 125 76 24 119 57 328 234 131 39 4 11 179 146 132 194 194 173 186 173 198 236 256 224 253 266 227 225 284 269 238 241 7 345 251 164 147 235 252 268 276 345
137 135 125 162 167 168 164 157 148 147 157 185 206 218 178 121 125 126 149 134 131 161 170 160 153 181 183 173 150 156 180 179 164 177 190 187 214 183 177 186 171 179 188 89 161 175 117 177 141 89 316 47 329 230 191 169 100 39 126 135 341 280 204 175 158 174 215 221 248 252 257 242 216 206 236 239 221 152 325 335 77 143 201 267 273 284 297 349
133 122 127 160 164 164 158 149 136 147 183 200 205 207 126 100 105 298 234 144 122 169 168 164 168 158 162 159 136 154 181 175 165 183 206 183 195 222 190 185 163 159 142 79 114 152 108 236 154 113 349 190 184 219 214 185 157 152 164 166 172 108 35 227 154 78 234 208 216 250 256 245 214 184 215 237 259 52 338 328 63 75 298 275 274 279 293 319
117 89 144 164 161 157 150 140 140 169 190 209 202 152 76 154 143 164 239 41 49 336 121 142 155 147 143 152 155 157 158 161 175 189 210 193 203 225 206 186 157 145 133 115 161 171 167 173 139 137 172 189 186 357 315 288 198 170 184 179 175 154 136 183 197 153 1 231 198 235 265 260 155 173 212 234 284 48 64 258 236 285 289 281 277 269 281 299
120 94 157 168 160 152 149 143 158 175 203 206 176 94 118 127 140 156 168 93 73 35 65 113 130 137 147 155 157 154 155 164 179 189 209 213 212 213 208 167 147 151 154 145 151 160 109 98 112 130 172 194 326 8 237 282 310 318 272 204 174 168 170 190 203 180 143 161 101 85 281 280 96 156 229 236 250 109 169 240 246 270 274 283 302 296 298 297
125 111 155 166 162 154 151 149 151 182 216 175 109 64 92 95 141 154 171 190 153 113 136 135 132 153 164 156 149 158 164 167 183 195 205 211 213 197 156 154 147 158 166 148 145 163 130 120 122 105 81 73 346 190 162 308 294 236 239 208 190 199 191 181 185 155 151 167 160 157 251 258 131 123 246 255 265 246 209 214 224 248 268 283 297 299 304 309
108 97 146 168 169 165 161 164 174 192 191 134 110 122 85 352 162 163 181 187 175 159 148 134 160 164 152 152 148 165 173 172 199 210 202 182 191 82 146 164 159 168 184 174 169 175 178 159 135 120 112 129 171 195 193 204 210 220 221 184 185 155 92 84 95 134 192 197 171 191 244 244 147 77 264 257 271 267 223 190 198 217 236 251 264 274 280 290
114 93 64 167 175 179 187 179 183 189 179 157 165 172 148 113 200 191 183 170 147 169 147 136 183 111 114 139 112 155 182 179 186 199 195 181 183 58 157 187 179 181 191 84 138 160 186 179 153 159 169 171 189 200 200 190 183 209 192 160 183 171 151 158 143 154 212 196 162 204 236 225 123 263 260 238 240 248 220 172 179 202 211 223 229 220 218 205
111 124 102 148 181 203 221 185 178 185 179 171 177 183 171 162 167 315 189 169 178 166 107 94 159 110 115 151 132 159 193 191 50 171 186 181 169 55 331 207 197 194 51 86 145 151 154 204 193 194 193 193 202 205 186 138 147 191 196 176 181 186 180 169 125 181 204 164 169 222 231 217 185 207 220 209 203 218 211 182 191 215 214 218 213 202 198 187
92 106 144 133 146 201 197 184 183 187 181 175 173 178 176 161 143 155 233 203 190 165 83 55 168 163 161 161 152 172 188 178 68 159 175 167 144 39 36 156 210 291 19 142 172 149 134 206 211 210 214 214 207 196 165 153 177 196 190 172 174 180 179 180 197 208 177 122 217 231 228 231 218 191 201 204 190 206 221 204 220 227 207 208 201 187 172 156
88 77 89 19 210 195 200 189 187 187 180 177 175 173 176 168 157 170 183 71 182 190 135 145 203 189 174 164 155 154 164 161 168 170 146 140 148 120 78 67 171 189 41 157 189 146 172 210 208 206 224 228 193 133 169 176 181 187 173 171 174 172 177 192 209 211 165 167 233 232 217 227 219 183 196 208 190 205 208 173 200 204 185 184 155 126 149 176
87 100 25 339 16 172 200 172 173 177 176 177 185 184 181 178 169 168 128 119 174 219 200 183 195 190 175 169 162 155 162 171 192 202 171 144 154 144 125 131 162 158 125 141 178 224 200 211 196 187 223 231 178 115 189 174 153 171 176 176 173 173 186 197 210 215 192 205 238 234 205 227 220 184 197 211 186 197 183 139 219 195 136 130 129 155 207 202
119 122 133 39 52 68 92 155 162 167 172 179 190 192 187 184 174 160 143 165 171 183 195 177 164 150 161 179 175 176 183 180 187 194 171 147 160 186 180 180 154 133 166 167 157 217 219 208 149 146 221 231 176 130 201 174 163 177 172 173 173 177 193 205 214 218 209 221 240 240 239 255 228 176 189 218 200 215 276 259 262 266 145 165 172 197 216 194
86 81 109 118 78 75 192 170 165 167 174 189 193 187 189 192 180 144 133 225 174 168 175 159 143 125 132 184 189 197 192 179 177 185 173 166 176 183 183 187 158 150 171 184 162 167 195 194 104 137 211 227 187 165 162 119 102 143 157 178 184 185 197 206 213 213 206 218 233 238 253 260 209 147 158 213 224 233 246 245 247 241 217 187 186 212 215 163
85 68 77 96 85 164 213 227 169 175 181 192 190 182 182 188 178 150 152 137 27 81 150 149 145 130 142 187 199 196 171 148 98 139 165 161 140 132 133 164 163 161 169 175 171 169 179 178 149 170 202 224 205 159 140 113 105 216 201 192 190 196 203 204 211 217 207 212 218 220 233 230 144 141 169 189 209 223 226 228 236 241 232 200 200 225 211 128